Location: ??????????
(41.2581°N, 22.8006°E)
Time: 23:33:38
(UTC+00:00)

GEOS 3 Rocket - Pass Details

Date: 14 March 2026
Orbit: 767 x 846 km, 115.0° (Epoch: 13 April)

Event Time Altitude Azimuth Distance (km) Brightness Sun altitude
Rises 03:32:04 0° 28° (NNE) 3,412 7.4 -14.0°
Reaches altitude 10° 03:34:35 10° 20° (NNE) 2,475 6.5 -13.6°
Maximum altitude 03:39:22 33° 317° (NW) 1,375 4.5 -12.7°
Enters shadow 03:42:54 16° 262° (W) 2,048 5.0 -12.0°
